TimeCDT,TemperatureF,Dew PointF,Humidity,Sea Level PressureIn,VisibilityMPH,Wind Direction,Wind SpeedMPH,Gust SpeedMPH,PrecipitationIn,Events,Conditions,WindDirDegrees,DateUTC
12:10 AM,28.4,28.4,100,30.04,10.0,SSW,5.8,-,N/A,,Clear,200,2013-10-27 05:10:00
12:30 AM,28.4,28.4,100,30.02,10.0,SSW,5.8,-,N/A,,Clear,200,2013-10-27 05:30:00
12:50 AM,28.4,26.6,93,30.01,10.0,SSW,6.9,-,N/A,,Clear,210,2013-10-27 05:50:00
1:10 AM,28.4,28.4,100,30.01,10.0,SSW,9.2,-,N/A,,Clear,210,2013-10-27 06:10:00
1:30 AM,30.2,28.4,93,30.00,10.0,SSW,10.4,-,N/A,,Clear,210,2013-10-27 06:30:00
1:50 AM,30.2,28.4,93,29.99,10.0,SSW,8.1,-,N/A,,Clear,210,2013-10-27 06:50:00
2:10 AM,28.4,28.4,100,29.98,10.0,SSW,6.9,-,N/A,,Clear,210,2013-10-27 07:10:00
2:30 AM,30.2,28.4,93,29.97,10.0,SSW,9.2,-,N/A,,Clear,200,2013-10-27 07:30:00
2:50 AM,28.4,28.4,100,29.96,10.0,South,10.4,-,N/A,,Clear,190,2013-10-27 07:50:00
3:10 AM,28.4,28.4,100,29.95,10.0,SSW,9.2,-,N/A,,Clear,200,2013-10-27 08:10:00
3:30 AM,28.4,28.4,100,29.94,10.0,SSW,8.1,-,N/A,,Clear,210,2013-10-27 08:30:00
3:50 AM,32.0,28.4,87,29.93,10.0,SSW,10.4,-,N/A,,Clear,210,2013-10-27 08:50:00
4:10 AM,33.8,28.4,81,29.91,10.0,SSW,11.5,-,N/A,,Clear,210,2013-10-27 09:10:00
4:30 AM,33.8,28.4,81,29.90,10.0,SSW,10.4,-,N/A,,Clear,210,2013-10-27 09:30:00
4:50 AM,35.6,28.4,75,29.89,10.0,SSW,10.4,-,N/A,,Clear,210,2013-10-27 09:50:00
5:10 AM,35.6,28.4,75,29.88,10.0,SSW,10.4,-,N/A,,Clear,210,2013-10-27 10:10:00
5:30 AM,35.6,28.4,75,29.87,10.0,SSW,11.5,-,N/A,,Clear,200,2013-10-27 10:30:00
5:50 AM,35.6,28.4,75,29.87,10.0,SSW,10.4,-,N/A,,Clear,210,2013-10-27 10:50:00
6:10 AM,35.6,26.6,70,29.86,10.0,SSW,9.2,-,N/A,,Clear,200,2013-10-27 11:10:00
6:30 AM,32.0,26.6,80,29.86,10.0,South,9.2,-,N/A,,Clear,180,2013-10-27 11:30:00
6:50 AM,32.0,28.4,87,29.84,10.0,South,13.8,-,N/A,,Clear,190,2013-10-27 11:50:00
7:10 AM,32.0,28.4,87,29.84,10.0,South,13.8,-,N/A,,Clear,190,2013-10-27 12:10:00
7:30 AM,32.0,28.4,87,29.82,10.0,South,11.5,-,N/A,,Clear,180,2013-10-27 12:30:00
7:50 AM,32.0,28.4,87,29.82,10.0,South,8.1,-,N/A,,Clear,170,2013-10-27 12:50:00
8:10 AM,30.2,28.4,93,29.82,10.0,South,6.9,-,N/A,,Clear,180,2013-10-27 13:10:00
8:30 AM,28.4,28.4,100,29.82,10.0,South,6.9,-,N/A,,Clear,170,2013-10-27 13:30:00
8:50 AM,30.2,30.2,100,29.83,10.0,South,6.9,-,N/A,,Clear,180,2013-10-27 13:50:00
9:10 AM,32.0,32.0,100,29.83,10.0,South,4.6,-,N/A,,Clear,180,2013-10-27 14:10:00
9:30 AM,33.8,32.0,93,29.83,10.0,South,6.9,-,N/A,,Clear,190,2013-10-27 14:30:00
9:50 AM,35.6,32.0,87,29.82,10.0,SSW,5.8,-,N/A,,Clear,200,2013-10-27 14:50:00
10:10 AM,39.2,32.0,75,29.82,10.0,SSW,6.9,-,N/A,,Clear,200,2013-10-27 15:10:00
10:30 AM,42.8,32.0,66,29.82,10.0,SW,12.7,-,N/A,,Clear,230,2013-10-27 15:30:00
10:50 AM,44.6,32.0,61,29.82,10.0,SW,9.2,-,N/A,,Clear,230,2013-10-27 15:50:00
11:10 AM,46.4,32.0,57,29.82,10.0,SW,6.9,-,N/A,,Clear,230,2013-10-27 16:10:00
11:30 AM,46.4,32.0,57,29.82,10.0,West,6.9,-,N/A,,Clear,270,2013-10-27 16:30:00
11:50 AM,48.2,32.0,54,29.83,10.0,West,5.8,-,N/A,,Clear,280,2013-10-27 16:50:00
12:10 PM,50.0,32.0,50,29.83,10.0,WNW,6.9,-,N/A,,Clear,300,2013-10-27 17:10:00
12:30 PM,51.8,32.0,47,29.83,10.0,NNW,4.6,-,N/A,,Clear,340,2013-10-27 17:30:00
12:50 PM,53.6,32.0,44,29.83,10.0,North,4.6,-,N/A,,Clear,350,2013-10-27 17:50:00
1:10 PM,53.6,32.0,44,29.82,10.0,NNW,8.1,-,N/A,,Clear,330,2013-10-27 18:10:00
1:30 PM,55.4,32.0,41,29.82,10.0,NW,6.9,-,N/A,,Clear,310,2013-10-27 18:30:00
1:50 PM,57.2,32.0,38,29.82,10.0,NW,8.1,-,N/A,,Clear,320,2013-10-27 18:50:00
2:10 PM,57.2,32.0,38,29.82,10.0,North,9.2,-,N/A,,Clear,360,2013-10-27 19:10:00
2:30 PM,57.2,32.0,38,29.82,8.0,North,11.5,-,N/A,,Clear,10,2013-10-27 19:30:00
2:50 PM,57.2,32.0,38,29.83,10.0,NNE,12.7,-,N/A,,Clear,20,2013-10-27 19:50:00
3:10 PM,59.0,32.0,36,29.82,10.0,NNE,13.8,18.4,N/A,,Clear,20,2013-10-27 20:10:00
3:30 PM,57.2,32.0,38,29.83,10.0,NNE,15.0,-,N/A,,Clear,30,2013-10-27 20:30:00
3:50 PM,55.4,32.0,41,29.84,10.0,NNE,16.1,-,N/A,,Clear,30,2013-10-27 20:50:00
4:10 PM,57.2,32.0,38,29.85,10.0,NE,13.8,23.0,N/A,,Clear,40,2013-10-27 21:10:00
4:30 PM,57.2,32.0,38,29.86,10.0,NNE,17.3,20.7,N/A,,Clear,30,2013-10-27 21:30:00
4:50 PM,55.4,32.0,41,29.87,10.0,NE,17.3,24.2,N/A,,Clear,40,2013-10-27 21:50:00
5:10 PM,53.6,32.0,44,29.89,10.0,NE,18.4,26.5,N/A,,Clear,40,2013-10-27 22:10:00
5:30 PM,50.0,32.0,50,29.90,10.0,NNE,19.6,24.2,N/A,,Clear,30,2013-10-27 22:30:00
5:50 PM,50.0,32.0,50,29.91,10.0,NE,17.3,21.9,N/A,,Clear,40,2013-10-27 22:50:00
6:10 PM,48.2,32.0,54,29.93,10.0,NE,16.1,-,N/A,,Clear,40,2013-10-27 23:10:00
6:30 PM,46.4,32.0,57,29.94,10.0,NE,16.1,-,N/A,,Clear,40,2013-10-27 23:30:00
6:50 PM,44.6,32.0,61,29.95,10.0,NE,16.1,-,N/A,,Clear,40,2013-10-27 23:50:00
7:10 PM,44.6,32.0,61,29.96,10.0,NE,19.6,26.5,N/A,,Clear,40,2013-10-28 00:10:00
7:30 PM,42.8,32.0,66,29.98,10.0,NNE,21.9,28.8,N/A,,Clear,30,2013-10-28 00:30:00
7:50 PM,41.0,32.0,70,29.99,10.0,NNE,19.6,28.8,N/A,,Clear,30,2013-10-28 00:50:00
8:10 PM,39.2,32.0,75,30.01,10.0,NNE,16.1,23.0,N/A,,Clear,30,2013-10-28 01:10:00
8:30 PM,39.2,32.0,75,30.02,10.0,NE,16.1,-,N/A,,Clear,40,2013-10-28 01:30:00
8:50 PM,37.4,32.0,81,30.02,10.0,NE,18.4,-,N/A,,Clear,40,2013-10-28 01:50:00
9:10 PM,37.4,30.2,75,30.03,10.0,NE,17.3,20.7,N/A,,Clear,40,2013-10-28 02:10:00
9:30 PM,37.4,30.2,75,30.04,10.0,NNE,16.1,21.9,N/A,,Clear,30,2013-10-28 02:30:00
9:50 PM,37.4,30.2,75,30.05,10.0,NE,13.8,21.9,N/A,,Clear,40,2013-10-28 02:50:00
10:10 PM,37.4,28.4,70,30.06,10.0,NE,15.0,-,N/A,,Clear,40,2013-10-28 03:10:00
10:30 PM,35.6,28.4,75,30.07,10.0,NE,16.1,24.2,N/A,,Clear,40,2013-10-28 03:30:00
10:50 PM,35.6,28.4,75,30.09,10.0,NE,13.8,-,N/A,,Clear,40,2013-10-28 03:50:00
11:10 PM,35.6,28.4,75,30.10,10.0,NE,12.7,-,N/A,,Clear,50,2013-10-28 04:10:00
11:30 PM,35.6,28.4,75,30.10,10.0,NE,15.0,-,N/A,,Clear,50,2013-10-28 04:30:00
11:50 PM,35.6,30.2,81,30.11,10.0,NE,15.0,20.7,N/A,,Clear,50,2013-10-28 04:50:00